Time,TemperatureF,DewpointF,PressureIn,WindDirection,WindDirectionDegrees,WindSpeedMPH,WindSpeedGustMPH,Humidity,HourlyPrecipIn,Conditions,Clouds,dailyrainin,SoftwareType,DateUTC
2013-02-18 00:02:00,51.8,25.0,29.93,SSW,210,4.0,4.0,35,0.00,,---,0.00,VWS V14.01,2013-02-18 08:02:00,
2013-02-18 00:07:00,52.4,26.2,29.93,WSW,253,2.0,5.0,36,0.00,,---,0.00,VWS V14.01,2013-02-18 08:07:00,
2013-02-18 00:12:00,52.8,25.2,29.93,SW,236,4.0,6.0,34,0.00,,---,0.00,VWS V14.01,2013-02-18 08:12:00,
2013-02-18 00:17:00,52.5,25.0,29.93,SSW,210,3.0,6.0,34,0.00,,---,0.00,VWS V14.01,2013-02-18 08:17:00,
2013-02-18 00:22:00,51.6,24.9,29.93,SW,219,0.0,6.0,35,0.00,,---,0.00,VWS V14.01,2013-02-18 08:22:00,
2013-02-18 00:27:00,51.5,24.8,29.94,SE,146,0.0,6.0,35,0.00,,---,0.00,VWS V14.01,2013-02-18 08:27:00,
2013-02-18 00:32:00,51.7,25.0,29.94,SSW,210,1.0,6.0,35,0.00,,---,0.00,VWS V14.01,2013-02-18 08:32:00,
2013-02-18 00:37:00,52.0,25.9,29.94,SW,233,0.0,6.0,36,0.00,,---,0.00,VWS V14.01,2013-02-18 08:37:00,
2013-02-18 00:42:00,51.7,25.6,29.93,SSW,210,1.0,6.0,36,0.00,,---,0.00,VWS V14.01,2013-02-18 08:42:00,
2013-02-18 00:47:00,51.6,25.5,29.93,SSE,168,1.0,6.0,36,0.00,,---,0.00,VWS V14.01,2013-02-18 08:47:00,
2013-02-18 00:52:00,50.5,25.9,29.93,ENE,67,0.0,6.0,38,0.00,,---,0.00,VWS V14.01,2013-02-18 08:52:00,
2013-02-18 00:57:00,49.3,26.0,29.93,ESE,104,0.0,6.0,40,0.00,,---,0.00,VWS V14.01,2013-02-18 08:57:00,
2013-02-18 01:02:00,49.3,26.0,29.93,SE,129,0.0,0.0,40,0.00,,---,0.00,VWS V14.01,2013-02-18 09:02:00,
2013-02-18 01:07:00,49.9,26.6,29.94,SE,138,4.0,4.0,40,0.00,,---,0.00,VWS V14.01,2013-02-18 09:07:00,
2013-02-18 01:12:00,49.9,27.1,29.93,SSE,162,2.0,4.0,41,0.00,,---,0.00,VWS V14.01,2013-02-18 09:12:00,
2013-02-18 01:17:00,49.3,27.8,29.93,SSW,203,1.0,4.0,43,0.00,,---,0.00,VWS V14.01,2013-02-18 09:17:00,
2013-02-18 01:22:00,48.7,27.2,29.93,SSW,211,0.0,4.0,43,0.00,,---,0.00,VWS V14.01,2013-02-18 09:22:00,
2013-02-18 01:27:00,47.7,27.4,29.93,East,81,0.0,4.0,45,0.00,,---,0.00,VWS V14.01,2013-02-18 09:27:00,
2013-02-18 01:32:00,47.5,27.8,29.93,East,101,0.0,4.0,46,0.00,,---,0.00,VWS V14.01,2013-02-18 09:32:00,
2013-02-18 01:37:00,47.0,27.3,29.93,NNE,23,2.0,4.0,46,0.00,,---,0.00,VWS V14.01,2013-02-18 09:37:00,
2013-02-18 01:42:00,45.9,26.8,29.93,North,5,2.0,4.0,47,0.00,,---,0.00,VWS V14.01,2013-02-18 09:42:00,
2013-02-18 01:47:00,44.4,26.5,29.93,North,10,0.0,4.0,49,0.00,,---,0.00,VWS V14.01,2013-02-18 09:47:00,
2013-02-18 01:52:00,43.7,26.3,29.93,NNE,16,4.0,4.0,50,0.00,,---,0.00,VWS V14.01,2013-02-18 09:52:00,
2013-02-18 01:57:00,42.7,25.4,29.93,NE,38,0.0,8.0,50,0.00,,---,0.00,VWS V14.01,2013-02-18 09:57:00,
2013-02-18 02:02:00,42.2,26.3,29.93,NE,38,0.0,0.0,53,0.00,,---,0.00,VWS V14.01,2013-02-18 10:02:00,
2013-02-18 02:07:00,41.7,25.9,29.93,NNE,33,0.0,0.0,53,0.00,,---,0.00,VWS V14.01,2013-02-18 10:07:00,
2013-02-18 02:12:00,41.5,26.1,29.93,SW,222,0.0,3.0,54,0.00,,---,0.00,VWS V14.01,2013-02-18 10:12:00,
2013-02-18 02:17:00,41.2,25.8,29.93,SW,217,0.0,3.0,54,0.00,,---,0.00,VWS V14.01,2013-02-18 10:17:00,
2013-02-18 02:23:00,41.2,26.3,29.93,SW,225,0.0,3.0,55,0.00,,---,0.00,VWS V14.01,2013-02-18 10:23:00,
2013-02-18 02:28:00,41.4,26.0,29.92,SW,215,0.0,3.0,54,0.00,,---,0.00,VWS V14.01,2013-02-18 10:28:00,
2013-02-18 02:33:00,41.1,26.6,29.92,SSW,203,1.0,3.0,56,0.00,,---,0.00,VWS V14.01,2013-02-18 10:33:00,
2013-02-18 02:38:00,41.6,26.6,29.93,SSW,203,0.0,3.0,55,0.00,,---,0.00,VWS V14.01,2013-02-18 10:38:00,
2013-02-18 02:43:00,41.7,26.7,29.92,SSW,195,2.0,3.0,55,0.00,,---,0.00,VWS V14.01,2013-02-18 10:43:00,
2013-02-18 02:48:00,42.0,26.6,29.92,South,169,1.0,3.0,54,0.00,,---,0.00,VWS V14.01,2013-02-18 10:48:00,
2013-02-18 02:53:00,42.5,26.6,29.92,SSE,166,0.0,3.0,53,0.00,,---,0.00,VWS V14.01,2013-02-18 10:53:00,
2013-02-18 02:58:00,43.3,27.8,29.92,South,191,1.0,3.0,54,0.00,,---,0.00,VWS V14.01,2013-02-18 10:58:00,
2013-02-18 03:03:00,43.5,27.1,29.92,NNE,12,3.0,3.0,52,0.00,,---,0.00,VWS V14.01,2013-02-18 11:03:00,
2013-02-18 03:08:00,41.2,25.8,29.92,NNE,15,4.0,4.0,54,0.00,,---,0.00,VWS V14.01,2013-02-18 11:08:00,
2013-02-18 03:13:00,41.1,26.6,29.92,NNE,26,2.0,4.0,56,0.00,,---,0.00,VWS V14.01,2013-02-18 11:13:00,
2013-02-18 03:18:00,41.7,26.3,29.92,NNE,32,0.0,4.0,54,0.00,,---,0.00,VWS V14.01,2013-02-18 11:18:00,
2013-02-18 03:23:00,41.5,26.5,29.92,NNE,32,0.0,4.0,55,0.00,,---,0.00,VWS V14.01,2013-02-18 11:23:00,
2013-02-18 03:28:00,41.2,26.3,29.92,NNE,32,0.0,4.0,55,0.00,,---,0.00,VWS V14.01,2013-02-18 11:28:00,
2013-02-18 03:33:00,40.5,26.0,29.92,NNE,32,0.0,4.0,56,0.00,,---,0.00,VWS V14.01,2013-02-18 11:33:00,
2013-02-18 03:38:00,39.8,25.8,29.93,North,359,0.0,4.0,57,0.00,,---,0.00,VWS V14.01,2013-02-18 11:38:00,
2013-02-18 03:43:00,39.2,26.1,29.92,North,356,0.0,4.0,59,0.00,,---,0.00,VWS V14.01,2013-02-18 11:43:00,
2013-02-18 03:48:00,39.2,26.9,29.93,North,356,0.0,4.0,61,0.00,,---,0.00,VWS V14.01,2013-02-18 11:48:00,
2013-02-18 03:53:00,39.5,27.6,29.93,North,356,0.0,4.0,62,0.00,,---,0.00,VWS V14.01,2013-02-18 11:53:00,
2013-02-18 03:59:00,39.3,27.0,29.93,North,356,0.0,4.0,61,0.00,,---,0.00,VWS V14.01,2013-02-18 11:59:00,
2013-02-18 04:04:00,39.3,27.4,29.93,WSW,238,0.0,0.0,62,0.00,,---,0.00,VWS V14.01,2013-02-18 12:04:00,
2013-02-18 04:09:00,39.5,26.8,29.93,SSW,205,0.0,0.0,60,0.00,,---,0.00,VWS V14.01,2013-02-18 12:09:00,
2013-02-18 04:14:00,39.6,27.7,29.93,SSW,204,0.0,0.0,62,0.00,,---,0.00,VWS V14.01,2013-02-18 12:14:00,
2013-02-18 04:19:00,40.0,27.6,29.93,South,181,2.0,2.0,61,0.00,,---,0.00,VWS V14.01,2013-02-18 12:19:00,
2013-02-18 04:24:00,40.1,28.1,29.93,South,191,0.0,3.0,62,0.00,,---,0.00,VWS V14.01,2013-02-18 12:24:00,
2013-02-18 04:29:00,40.0,27.2,29.93,SSE,148,0.0,3.0,60,0.00,,---,0.00,VWS V14.01,2013-02-18 12:29:00,
2013-02-18 04:34:00,39.7,27.4,29.93,SE,143,0.0,3.0,61,0.00,,---,0.00,VWS V14.01,2013-02-18 12:34:00,
2013-02-18 04:39:00,39.8,27.5,29.93,SE,139,0.0,3.0,61,0.00,,---,0.00,VWS V14.01,2013-02-18 12:39:00,
2013-02-18 04:44:00,39.9,27.2,29.93,SE,143,0.0,3.0,60,0.00,,---,0.00,VWS V14.01,2013-02-18 12:44:00,
2013-02-18 04:49:00,40.1,27.8,29.93,SE,131,0.0,3.0,61,0.00,,---,0.00,VWS V14.01,2013-02-18 12:49:00,
2013-02-18 04:54:00,40.2,27.8,29.93,East,87,0.0,3.0,61,0.00,,---,0.00,VWS V14.01,2013-02-18 12:54:00,
2013-02-18 04:59:00,40.6,27.8,29.93,ESE,114,0.0,3.0,60,0.00,,---,0.00,VWS V14.01,2013-02-18 12:59:00,
2013-02-18 05:04:00,40.7,27.9,29.94,SE,127,0.0,0.0,60,0.00,,---,0.00,VWS V14.01,2013-02-18 13:04:00,
2013-02-18 05:09:00,40.8,28.4,29.94,SE,132,0.0,0.0,61,0.00,,---,0.00,VWS V14.01,2013-02-18 13:09:00,
2013-02-18 05:14:00,41.2,28.0,29.94,South,176,0.0,0.0,59,0.00,,---,0.00,VWS V14.01,2013-02-18 13:14:00,
2013-02-18 05:19:00,41.0,28.2,29.94,SSE,165,0.0,0.0,60,0.00,,---,0.00,VWS V14.01,2013-02-18 13:19:00,
2013-02-18 05:24:00,40.9,27.7,29.94,SE,127,0.0,0.0,59,0.00,,---,0.00,VWS V14.01,2013-02-18 13:24:00,
2013-02-18 05:29:00,39.9,27.6,29.95,SE,127,0.0,0.0,61,0.00,,---,0.00,VWS V14.01,2013-02-18 13:29:00,
2013-02-18 05:34:00,40.2,27.8,29.95,SE,125,0.0,0.0,61,0.00,,---,0.00,VWS V14.01,2013-02-18 13:34:00,
2013-02-18 05:39:00,40.4,28.0,29.95,SE,125,0.0,0.0,61,0.00,,---,0.00,VWS V14.01,2013-02-18 13:39:00,
2013-02-18 05:44:00,39.6,27.3,29.95,SE,125,0.0,0.0,61,0.00,,---,0.00,VWS V14.01,2013-02-18 13:44:00,
2013-02-18 05:49:00,38.1,26.6,29.95,NE,38,0.0,0.0,63,0.00,,---,0.00,VWS V14.01,2013-02-18 13:49:00,
2013-02-18 05:54:00,37.2,26.2,29.95,ENE,70,0.0,0.0,64,0.00,,---,0.00,VWS V14.01,2013-02-18 13:54:00,
2013-02-18 05:59:00,36.4,26.5,29.95,East,94,0.0,0.0,67,0.00,,---,0.00,VWS V14.01,2013-02-18 13:59:00,
2013-02-18 06:04:00,36.2,26.3,29.95,East,94,0.0,0.0,67,0.00,,---,0.00,VWS V14.01,2013-02-18 14:04:00,
2013-02-18 06:09:00,36.1,26.9,29.95,SE,129,0.0,0.0,69,0.00,,---,0.00,VWS V14.01,2013-02-18 14:09:00,
2013-02-18 06:14:00,36.1,26.9,29.96,ENE,71,0.0,0.0,69,0.00,,---,0.00,VWS V14.01,2013-02-18 14:14:00,
2013-02-18 06:19:00,36.8,27.6,29.96,ENE,75,0.0,0.0,69,0.00,,---,0.00,VWS V14.01,2013-02-18 14:19:00,
2013-02-18 06:24:00,36.9,26.6,29.96,SSE,165,0.0,0.0,66,0.00,,---,0.00,VWS V14.01,2013-02-18 14:24:00,
2013-02-18 06:29:00,37.0,27.8,29.96,ENE,63,0.0,0.0,69,0.00,,---,0.00,VWS V14.01,2013-02-18 14:29:00,
2013-02-18 06:34:00,37.1,26.4,29.96,East,84,0.0,2.0,65,0.00,,---,0.00,VWS V14.01,2013-02-18 14:34:00,
2013-02-18 06:39:00,37.0,27.4,29.96,ENE,77,2.0,3.0,68,0.00,,---,0.00,VWS V14.01,2013-02-18 14:39:00,
2013-02-18 06:44:00,37.1,27.2,29.96,ESE,120,1.0,3.0,67,0.00,,---,0.00,VWS V14.01,2013-02-18 14:44:00,
2013-02-18 06:49:00,37.2,27.6,29.96,East,101,3.0,4.0,68,0.00,,---,0.00,VWS V14.01,2013-02-18 14:49:00,
2013-02-18 06:54:00,37.6,27.6,29.97,SE,124,2.0,4.0,67,0.00,,---,0.00,VWS V14.01,2013-02-18 14:54:00,
2013-02-18 07:01:00,38.0,28.0,29.97,ESE,120,2.0,3.0,67,0.00,,---,0.00,VWS V14.01,2013-02-18 15:01:00,
2013-02-18 07:06:00,38.6,28.2,29.97,ESE,105,0.0,3.0,66,0.00,,---,0.00,VWS V14.01,2013-02-18 15:06:00,
2013-02-18 07:11:00,39.0,28.2,29.97,ESE,108,1.0,3.0,65,0.00,,---,0.00,VWS V14.01,2013-02-18 15:11:00,
2013-02-18 07:16:00,39.0,28.2,29.98,East,82,0.0,3.0,65,0.00,,---,0.00,VWS V14.01,2013-02-18 15:16:00,
2013-02-18 07:21:00,38.7,28.0,29.98,NNE,18,0.0,3.0,65,0.00,,---,0.00,VWS V14.01,2013-02-18 15:21:00,
2013-02-18 07:26:00,38.2,27.5,29.98,NW,326,0.0,3.0,65,0.00,,---,0.00,VWS V14.01,2013-02-18 15:26:00,
2013-02-18 07:31:00,37.9,27.6,29.99,NW,326,0.0,3.0,66,0.00,,---,0.00,VWS V14.01,2013-02-18 15:31:00,
2013-02-18 07:36:00,38.0,28.0,29.99,NW,323,0.0,3.0,67,0.00,,---,0.00,VWS V14.01,2013-02-18 15:36:00,
2013-02-18 07:41:00,39.5,29.5,29.99,NW,323,0.0,3.0,67,0.00,,---,0.00,VWS V14.01,2013-02-18 15:41:00,
2013-02-18 07:46:00,40.7,28.3,29.99,SE,138,0.0,3.0,61,0.00,,---,0.00,VWS V14.01,2013-02-18 15:46:00,
2013-02-18 07:51:00,41.5,28.7,29.99,South,173,0.0,3.0,60,0.00,,---,0.00,VWS V14.01,2013-02-18 15:51:00,
2013-02-18 07:56:00,42.3,28.6,29.99,SSE,152,0.0,3.0,58,0.00,,---,0.00,VWS V14.01,2013-02-18 15:56:00,
2013-02-18 08:02:00,43.1,28.5,29.99,SE,124,0.0,1.0,56,0.00,,---,0.00,VWS V14.01,2013-02-18 16:02:00,
2013-02-18 08:07:00,43.2,28.6,29.99,East,92,0.0,3.0,56,0.00,,---,0.00,VWS V14.01,2013-02-18 16:07:00,
2013-02-18 08:12:00,43.2,29.0,29.99,ENE,68,1.0,4.0,57,0.00,,---,0.00,VWS V14.01,2013-02-18 16:12:00,
2013-02-18 08:17:00,43.5,28.9,29.99,East,83,2.0,4.0,56,0.00,,---,0.00,VWS V14.01,2013-02-18 16:17:00,
2013-02-18 08:22:00,43.9,29.7,29.99,ESE,114,1.0,4.0,57,0.00,,---,0.00,VWS V14.01,2013-02-18 16:22:00,
2013-02-18 08:28:00,44.5,29.8,29.99,East,94,0.0,4.0,56,0.00,,---,0.00,VWS V14.01,2013-02-18 16:28:00,
2013-02-18 08:33:00,45.0,30.3,29.99,East,90,1.0,4.0,56,0.00,,---,0.00,VWS V14.01,2013-02-18 16:33:00,
2013-02-18 08:38:00,45.6,30.4,29.99,ENE,64,1.0,4.0,55,0.00,,---,0.00,VWS V14.01,2013-02-18 16:38:00,
2013-02-18 08:44:00,46.0,30.8,29.99,ENE,58,1.0,4.0,55,0.00,,---,0.00,VWS V14.01,2013-02-18 16:44:00,
2013-02-18 08:49:00,46.6,30.9,29.99,ENE,74,0.0,4.0,54,0.00,,---,0.00,VWS V14.01,2013-02-18 16:49:00,
2013-02-18 08:54:00,46.8,31.0,29.99,ESE,108,0.0,4.0,54,0.00,,---,0.00,VWS V14.01,2013-02-18 16:54:00,
2013-02-18 08:59:00,47.7,31.0,29.99,NE,41,2.0,4.0,52,0.00,,---,0.00,VWS V14.01,2013-02-18 16:59:00,
2013-02-18 09:04:00,47.6,30.9,29.99,NE,47,2.0,4.0,52,0.00,,---,0.00,VWS V14.01,2013-02-18 17:04:00,
2013-02-18 09:09:00,47.9,31.1,29.99,East,81,0.0,4.0,52,0.00,,---,0.00,VWS V14.01,2013-02-18 17:09:00,
2013-02-18 09:14:00,48.3,31.0,29.99,ENE,72,1.0,4.0,51,0.00,,---,0.00,VWS V14.01,2013-02-18 17:14:00,
2013-02-18 09:19:00,48.8,32.0,29.99,NNE,23,0.0,4.0,52,0.00,,---,0.00,VWS V14.01,2013-02-18 17:19:00,
2013-02-18 09:24:00,49.5,31.6,29.99,NE,48,0.0,4.0,50,0.00,,---,0.00,VWS V14.01,2013-02-18 17:24:00,
2013-02-18 09:29:00,49.8,31.9,29.99,North,8,2.0,4.0,50,0.00,,---,0.00,VWS V14.01,2013-02-18 17:29:00,
2013-02-18 09:34:00,50.0,32.1,29.99,NNE,33,1.0,4.0,50,0.00,,---,0.00,VWS V14.01,2013-02-18 17:34:00,
2013-02-18 09:39:00,50.6,32.2,29.99,ESE,108,0.0,4.0,49,0.00,,---,0.00,VWS V14.01,2013-02-18 17:39:00,
2013-02-18 09:44:00,51.0,32.0,29.99,North,355,0.0,4.0,48,0.00,,---,0.00,VWS V14.01,2013-02-18 17:44:00,
2013-02-18 09:49:00,51.4,31.9,29.98,ENE,69,0.0,4.0,47,0.00,,---,0.00,VWS V14.01,2013-02-18 17:49:00,
2013-02-18 09:54:00,51.7,31.6,29.98,East,96,0.0,4.0,46,0.00,,---,0.00,VWS V14.01,2013-02-18 17:54:00,
2013-02-18 09:59:00,51.7,31.1,29.98,NE,44,2.0,5.0,45,0.00,,---,0.00,VWS V14.01,2013-02-18 17:59:00,
2013-02-18 10:05:00,52.3,31.0,29.98,ENE,69,4.0,5.0,44,0.00,,---,0.00,VWS V14.01,2013-02-18 18:05:00,
2013-02-18 10:10:00,52.5,31.2,29.98,NNE,26,1.0,5.0,44,0.00,,---,0.00,VWS V14.01,2013-02-18 18:10:00,
2013-02-18 10:16:00,52.8,30.9,29.98,NE,35,3.0,6.0,43,0.00,,---,0.00,VWS V14.01,2013-02-18 18:16:00,
2013-02-18 10:21:00,53.2,31.3,29.98,NE,56,4.0,6.0,43,0.00,,---,0.00,VWS V14.01,2013-02-18 18:21:00,
2013-02-18 10:26:00,53.4,30.3,29.98,ENE,63,1.0,6.0,41,0.00,,---,0.00,VWS V14.01,2013-02-18 18:26:00,
2013-02-18 10:31:00,53.8,30.7,29.98,NE,46,2.0,6.0,41,0.00,,---,0.00,VWS V14.01,2013-02-18 18:31:00,
2013-02-18 10:36:00,54.3,30.5,29.98,ESE,104,2.0,6.0,40,0.00,,---,0.00,VWS V14.01,2013-02-18 18:36:00,
2013-02-18 10:41:00,55.0,30.5,29.98,NE,46,0.0,6.0,39,0.00,,---,0.00,VWS V14.01,2013-02-18 18:41:00,
2013-02-18 10:46:00,55.3,30.1,29.98,NE,48,2.0,6.0,38,0.00,,---,0.00,VWS V14.01,2013-02-18 18:46:00,
2013-02-18 10:51:00,55.5,30.3,29.98,ENE,62,3.0,6.0,38,0.00,,---,0.00,VWS V14.01,2013-02-18 18:51:00,
2013-02-18 10:56:00,55.5,30.3,29.97,NE,40,3.0,6.0,38,0.00,,---,0.00,VWS V14.01,2013-02-18 18:56:00,
2013-02-18 11:01:00,56.1,30.2,29.97,NE,36,4.0,5.0,37,0.00,,---,0.00,VWS V14.01,2013-02-18 19:01:00,
2013-02-18 11:06:00,56.7,30.1,29.97,NE,53,2.0,5.0,36,0.00,,---,0.00,VWS V14.01,2013-02-18 19:06:00,
2013-02-18 11:11:00,57.3,29.9,29.97,ENE,74,6.0,6.0,35,0.00,,---,0.00,VWS V14.01,2013-02-18 19:11:00,
2013-02-18 11:16:00,57.7,29.5,29.96,NE,39,0.0,7.0,34,0.00,,---,0.00,VWS V14.01,2013-02-18 19:16:00,
2013-02-18 11:21:00,58.6,29.6,29.96,ESE,118,0.0,7.0,33,0.00,,---,0.00,VWS V14.01,2013-02-18 19:21:00,
2013-02-18 11:26:00,58.9,29.1,29.96,East,82,4.0,7.0,32,0.00,,---,0.00,VWS V14.01,2013-02-18 19:26:00,
2013-02-18 11:31:00,58.9,29.1,29.95,WSW,248,0.0,7.0,32,0.00,,---,0.00,VWS V14.01,2013-02-18 19:31:00,
2013-02-18 11:36:00,59.1,29.3,29.95,NW,325,2.0,7.0,32,0.00,,---,0.00,VWS V14.01,2013-02-18 19:36:00,
2013-02-18 11:41:00,59.2,28.6,29.95,WSW,250,0.0,7.0,31,0.00,,---,0.00,VWS V14.01,2013-02-18 19:41:00,
2013-02-18 11:47:00,59.9,29.2,29.95,NNE,18,4.0,7.0,31,0.00,,---,0.00,VWS V14.01,2013-02-18 19:47:00,
2013-02-18 11:52:00,59.7,29.0,29.95,NE,53,3.0,7.0,31,0.00,,---,0.00,VWS V14.01,2013-02-18 19:52:00,
2013-02-18 11:57:00,59.6,29.0,29.94,NE,51,1.0,9.0,31,0.00,,---,0.00,VWS V14.01,2013-02-18 19:57:00,
2013-02-18 12:02:00,60.3,28.8,29.94,East,99,4.0,5.0,30,0.00,,---,0.00,VWS V14.01,2013-02-18 20:02:00,
2013-02-18 12:07:00,60.6,29.8,29.93,NNE,28,0.0,5.0,31,0.00,,---,0.00,VWS V14.01,2013-02-18 20:07:00,
2013-02-18 12:12:00,60.6,29.0,29.93,NE,44,7.0,8.0,30,0.00,,---,0.00,VWS V14.01,2013-02-18 20:12:00,
2013-02-18 12:17:00,60.9,29.3,29.93,NE,48,4.0,8.0,30,0.00,,---,0.00,VWS V14.01,2013-02-18 20:17:00,
2013-02-18 12:22:00,61.2,29.5,29.93,SE,144,2.0,8.0,30,0.00,,---,0.00,VWS V14.01,2013-02-18 20:22:00,
2013-02-18 12:27:00,61.9,30.1,29.92,SSW,207,4.0,8.0,30,0.00,,---,0.00,VWS V14.01,2013-02-18 20:27:00,
2013-02-18 12:32:00,62.2,29.6,29.92,WSW,257,0.0,8.0,29,0.00,,---,0.00,VWS V14.01,2013-02-18 20:32:00,
2013-02-18 12:37:00,63.0,31.1,29.92,South,183,0.0,8.0,30,0.00,,---,0.00,VWS V14.01,2013-02-18 20:37:00,
2013-02-18 12:42:00,63.5,29.8,29.91,East,101,0.0,8.0,28,0.00,,---,0.00,VWS V14.01,2013-02-18 20:42:00,
2013-02-18 12:47:00,63.6,29.9,29.91,East,99,3.0,8.0,28,0.00,,---,0.00,VWS V14.01,2013-02-18 20:47:00,
2013-02-18 12:52:00,63.0,29.4,29.91,SSE,150,0.0,8.0,28,0.00,,---,0.00,VWS V14.01,2013-02-18 20:52:00,
2013-02-18 12:57:00,63.3,29.7,29.90,NE,42,2.0,8.0,28,0.00,,---,0.00,VWS V14.01,2013-02-18 20:57:00,
2013-02-18 13:02:00,63.5,30.7,29.90,SSE,166,9.0,10.0,29,0.00,,---,0.00,VWS V14.01,2013-02-18 21:02:00,
2013-02-18 13:07:00,63.8,31.8,29.90,WSW,246,7.0,14.0,30,0.00,,---,0.00,VWS V14.01,2013-02-18 21:07:00,
2013-02-18 13:12:00,63.9,31.0,29.89,SW,228,13.0,14.0,29,0.00,,---,0.00,VWS V14.01,2013-02-18 21:12:00,
2013-02-18 13:17:00,64.3,32.2,29.89,SW,230,12.0,14.0,30,0.00,,---,0.00,VWS V14.01,2013-02-18 21:17:00,
2013-02-18 13:22:00,63.9,32.7,29.89,SW,214,8.0,17.0,31,0.00,,---,0.00,VWS V14.01,2013-02-18 21:22:00,
2013-02-18 13:27:00,63.7,33.3,29.89,SSW,200,3.0,17.0,32,0.00,,---,0.00,VWS V14.01,2013-02-18 21:27:00,
2013-02-18 13:32:00,63.6,32.4,29.89,SSW,201,11.0,17.0,31,0.00,,---,0.00,VWS V14.01,2013-02-18 21:32:00,
2013-02-18 13:38:00,63.2,32.9,29.89,SW,217,13.0,19.0,32,0.00,,---,0.00,VWS V14.01,2013-02-18 21:38:00,
2013-02-18 13:43:00,63.3,33.0,29.89,SSW,208,11.0,19.0,32,0.00,,---,0.00,VWS V14.01,2013-02-18 21:43:00,
2013-02-18 13:48:00,63.0,33.5,29.89,SSW,201,9.0,19.0,33,0.00,,---,0.00,VWS V14.01,2013-02-18 21:48:00,
2013-02-18 13:53:00,63.3,33.7,29.89,WSW,243,14.0,19.0,33,0.00,,---,0.00,VWS V14.01,2013-02-18 21:53:00,
2013-02-18 13:58:00,62.8,34.0,29.88,WSW,246,15.0,19.0,34,0.00,,---,0.00,VWS V14.01,2013-02-18 21:58:00,
2013-02-18 14:03:00,62.7,34.0,29.88,WNW,287,7.0,13.0,34,0.00,,---,0.00,VWS V14.01,2013-02-18 22:03:00,
2013-02-18 14:08:00,62.4,33.7,29.88,SSW,205,15.0,18.0,34,0.00,,---,0.00,VWS V14.01,2013-02-18 22:08:00,
2013-02-18 14:13:00,62.2,33.5,29.89,SSW,204,10.0,20.0,34,0.00,,---,0.00,VWS V14.01,2013-02-18 22:13:00,
2013-02-18 14:18:00,61.9,33.2,29.88,WSW,243,15.0,20.0,34,0.00,,---,0.00,VWS V14.01,2013-02-18 22:18:00,
2013-02-18 14:23:00,61.9,33.2,29.88,SW,217,6.0,20.0,34,0.00,,---,0.00,VWS V14.01,2013-02-18 22:23:00,
2013-02-18 14:28:00,62.2,33.5,29.88,SW,232,5.0,20.0,34,0.00,,---,0.00,VWS V14.01,2013-02-18 22:28:00,
2013-02-18 14:33:00,61.8,33.2,29.88,WSW,243,15.0,21.0,34,0.00,,---,0.00,VWS V14.01,2013-02-18 22:33:00,
2013-02-18 14:38:00,61.5,32.9,29.88,SW,222,14.0,21.0,34,0.00,,---,0.00,VWS V14.01,2013-02-18 22:38:00,
2013-02-18 14:43:00,61.6,33.0,29.87,SSW,211,5.0,21.0,34,0.00,,---,0.00,VWS V14.01,2013-02-18 22:43:00,
2013-02-18 14:48:00,61.6,33.0,29.87,SSW,212,12.0,21.0,34,0.00,,---,0.00,VWS V14.01,2013-02-18 22:48:00,
2013-02-18 14:53:00,61.6,33.0,29.87,SSW,208,5.0,21.0,34,0.00,,---,0.00,VWS V14.01,2013-02-18 22:53:00,
2013-02-18 14:58:00,61.2,33.3,29.87,SSW,195,16.0,21.0,35,0.00,,---,0.00,VWS V14.01,2013-02-18 22:58:00,
2013-02-18 15:03:00,61.1,33.3,29.87,SW,232,14.0,17.0,35,0.00,,---,0.00,VWS V14.01,2013-02-18 23:03:00,
2013-02-18 15:08:00,61.0,33.2,29.86,SW,219,10.0,21.0,35,0.00,,---,0.00,VWS V14.01,2013-02-18 23:08:00,
2013-02-18 15:13:00,61.3,32.7,29.86,SW,236,9.0,21.0,34,0.00,,---,0.00,VWS V14.01,2013-02-18 23:13:00,
2013-02-18 15:18:00,61.1,32.5,29.86,SW,236,7.0,21.0,34,0.00,,---,0.00,VWS V14.01,2013-02-18 23:18:00,
2013-02-18 15:25:00,61.3,32.7,29.86,WSW,243,5.0,21.0,34,0.00,,---,0.00,VWS V14.01,2013-02-18 23:25:00,
2013-02-18 15:30:00,61.1,32.5,29.85,WSW,241,4.0,21.0,34,0.00,,---,0.00,VWS V14.01,2013-02-18 23:30:00,
2013-02-18 15:35:00,61.4,32.8,29.85,SW,218,10.0,21.0,34,0.00,,---,0.00,VWS V14.01,2013-02-18 23:35:00,
2013-02-18 15:40:00,61.1,31.8,29.85,West,259,7.0,21.0,33,0.00,,---,0.00,VWS V14.01,2013-02-18 23:40:00,
2013-02-18 15:45:00,60.8,31.5,29.85,SW,222,7.0,21.0,33,0.00,,---,0.00,VWS V14.01,2013-02-18 23:45:00,
2013-02-18 15:50:00,60.6,31.4,29.85,SSE,156,5.0,21.0,33,0.00,,---,0.00,VWS V14.01,2013-02-18 23:50:00,
2013-02-18 15:55:00,61.0,31.0,29.85,SW,230,9.0,21.0,32,0.00,,---,0.00,VWS V14.01,2013-02-18 23:55:00,
2013-02-18 16:00:00,61.1,31.0,29.85,SSW,201,6.0,14.0,32,0.00,,---,0.00,VWS V14.01,2013-02-19 00:00:00,
2013-02-18 16:05:00,60.8,31.5,29.85,SW,233,9.0,14.0,33,0.00,,---,0.00,VWS V14.01,2013-02-19 00:05:00,
2013-02-18 16:10:00,60.6,32.1,29.85,SSW,204,9.0,17.0,34,0.00,,---,0.00,VWS V14.01,2013-02-19 00:10:00,
2013-02-18 16:15:00,60.4,31.9,29.85,SSW,207,8.0,17.0,34,0.00,,---,0.00,VWS V14.01,2013-02-19 00:15:00,
2013-02-18 16:20:00,60.5,31.3,29.84,SW,225,6.0,17.0,33,0.00,,---,0.00,VWS V14.01,2013-02-19 00:20:00,
2013-02-18 16:25:00,60.4,30.4,29.84,SW,234,6.0,17.0,32,0.00,,---,0.00,VWS V14.01,2013-02-19 00:25:00,
2013-02-18 16:30:00,59.8,29.9,29.84,WNW,284,6.0,17.0,32,0.00,,---,0.00,VWS V14.01,2013-02-19 00:30:00,
2013-02-18 16:35:00,59.4,30.3,29.84,West,280,8.0,18.0,33,0.00,,---,0.00,VWS V14.01,2013-02-19 00:35:00,
2013-02-18 16:40:00,59.3,31.0,29.84,SW,228,11.0,18.0,34,0.00,,---,0.00,VWS V14.01,2013-02-19 00:40:00,
2013-02-18 16:45:00,58.9,31.3,29.84,SSW,207,13.0,18.0,35,0.00,,---,0.00,VWS V14.01,2013-02-19 00:45:00,
2013-02-18 16:51:00,58.5,31.0,29.83,WNW,284,11.0,23.0,35,0.00,,---,0.00,VWS V14.01,2013-02-19 00:51:00,
2013-02-18 16:56:00,58.3,30.8,29.84,SW,232,18.0,23.0,35,0.00,,---,0.00,VWS V14.01,2013-02-19 00:56:00,
2013-02-18 17:01:00,58.0,30.5,29.84,SW,233,6.0,10.0,35,0.00,,---,0.00,VWS V14.01,2013-02-19 01:01:00,
2013-02-18 17:06:00,58.0,30.5,29.84,SW,225,12.0,14.0,35,0.00,,---,0.00,VWS V14.01,2013-02-19 01:06:00,
2013-02-18 17:11:00,57.7,30.3,29.84,West,267,8.0,20.0,35,0.00,,---,0.00,VWS V14.01,2013-02-19 01:11:00,
2013-02-18 17:16:00,57.3,30.6,29.83,WSW,238,19.0,21.0,36,0.00,,---,0.00,VWS V14.01,2013-02-19 01:16:00,
2013-02-18 17:21:00,56.8,30.8,29.84,West,260,10.0,21.0,37,0.00,,---,0.00,VWS V14.01,2013-02-19 01:21:00,
2013-02-18 17:26:00,56.2,31.6,29.84,SW,224,8.0,21.0,39,0.00,,---,0.00,VWS V14.01,2013-02-19 01:26:00,
2013-02-18 17:31:00,55.8,31.2,29.84,West,277,2.0,21.0,39,0.00,,---,0.00,VWS V14.01,2013-02-19 01:31:00,
2013-02-18 17:36:00,55.5,31.6,29.84,West,261,12.0,21.0,40,0.00,,---,0.00,VWS V14.01,2013-02-19 01:36:00,
2013-02-18 17:41:00,55.2,31.3,29.84,West,273,10.0,21.0,40,0.00,,---,0.00,VWS V14.01,2013-02-19 01:41:00,
2013-02-18 17:46:00,54.9,31.7,29.84,WSW,253,16.0,21.0,41,0.00,,---,0.00,VWS V14.01,2013-02-19 01:46:00,
2013-02-18 17:51:00,54.7,32.1,29.84,WSW,241,7.0,21.0,42,0.00,,---,0.00,VWS V14.01,2013-02-19 01:51:00,
2013-02-18 17:57:00,54.5,31.9,29.84,West,263,10.0,21.0,42,0.00,,---,0.00,VWS V14.01,2013-02-19 01:57:00,
2013-02-18 18:02:00,54.5,31.3,29.84,WSW,255,10.0,15.0,41,0.00,,---,0.00,VWS V14.01,2013-02-19 02:02:00,
2013-02-18 18:07:00,54.3,31.7,29.84,WSW,253,7.0,15.0,42,0.00,,---,0.00,VWS V14.01,2013-02-19 02:07:00,
2013-02-18 18:12:00,54.0,32.6,29.84,WSW,255,10.0,15.0,44,0.00,,---,0.00,VWS V14.01,2013-02-19 02:12:00,
2013-02-18 18:17:00,53.6,33.3,29.85,WNW,291,9.0,15.0,46,0.00,,---,0.00,VWS V14.01,2013-02-19 02:17:00,
2013-02-18 18:22:00,53.3,33.6,29.85,SW,228,12.0,15.0,47,0.00,,---,0.00,VWS V14.01,2013-02-19 02:22:00,
2013-02-18 18:27:00,53.1,33.4,29.84,West,261,7.0,16.0,47,0.00,,---,0.00,VWS V14.01,2013-02-19 02:27:00,
2013-02-18 18:32:00,53.1,33.4,29.85,WSW,240,15.0,21.0,47,0.00,,---,0.00,VWS V14.01,2013-02-19 02:32:00,
2013-02-18 18:37:00,52.8,33.7,29.85,WSW,238,13.0,21.0,48,0.00,,---,0.00,VWS V14.01,2013-02-19 02:37:00,
2013-02-18 18:43:00,52.6,33.5,29.85,SW,221,6.0,21.0,48,0.00,,---,0.00,VWS V14.01,2013-02-19 02:43:00,
2013-02-18 18:48:00,52.5,33.9,29.85,SW,219,6.0,21.0,49,0.00,,---,0.00,VWS V14.01,2013-02-19 02:48:00,
2013-02-18 18:53:00,52.4,33.3,29.85,WSW,255,5.0,21.0,48,0.00,,---,0.00,VWS V14.01,2013-02-19 02:53:00,
2013-02-18 18:58:00,52.2,33.6,29.85,WNW,285,5.0,21.0,49,0.00,,---,0.00,VWS V14.01,2013-02-19 02:58:00,
2013-02-18 19:03:00,51.8,34.8,29.85,WSW,240,6.0,13.0,52,0.00,,---,0.00,VWS V14.01,2013-02-19 03:03:00,
2013-02-18 19:10:00,51.8,34.8,29.85,WSW,243,15.0,18.0,52,0.00,,---,0.00,VWS V14.01,2013-02-19 03:10:00,
2013-02-18 19:15:00,51.9,34.4,29.85,West,274,9.0,18.0,51,0.00,,---,0.00,VWS V14.01,2013-02-19 03:15:00,
2013-02-18 19:20:00,51.8,34.8,29.86,WSW,238,5.0,18.0,52,0.00,,---,0.00,VWS V14.01,2013-02-19 03:20:00,
2013-02-18 19:25:00,51.6,34.6,29.85,SW,215,12.0,20.0,52,0.00,,---,0.00,VWS V14.01,2013-02-19 03:25:00,
2013-02-18 19:30:00,51.5,35.4,29.85,SW,217,14.0,20.0,54,0.00,,---,0.00,VWS V14.01,2013-02-19 03:30:00,
2013-02-18 19:35:00,51.3,34.8,29.86,SW,217,7.0,20.0,53,0.00,,---,0.00,VWS V14.01,2013-02-19 03:35:00,
2013-02-18 19:40:00,51.2,34.7,29.86,WNW,285,2.0,20.0,53,0.00,,---,0.00,VWS V14.01,2013-02-19 03:40:00,
2013-02-18 19:45:00,51.1,34.6,29.86,SW,222,12.0,20.0,53,0.00,,---,0.00,VWS V14.01,2013-02-19 03:45:00,
2013-02-18 19:50:00,51.0,34.0,29.86,WSW,240,8.0,20.0,52,0.00,,---,0.00,VWS V14.01,2013-02-19 03:50:00,
2013-02-18 19:55:00,50.6,35.9,29.86,SSW,197,6.0,20.0,57,0.00,,---,0.00,VWS V14.01,2013-02-19 03:55:00,
2013-02-18 20:01:00,49.8,36.1,29.87,SW,221,9.0,16.0,59,0.00,,---,0.00,VWS V14.01,2013-02-19 04:01:00,
2013-02-18 20:06:00,49.3,36.4,29.87,SW,226,10.0,16.0,61,0.00,,---,0.00,VWS V14.01,2013-02-19 04:06:00,
2013-02-18 20:11:00,48.9,36.9,29.87,West,274,8.0,18.0,63,0.00,,---,0.00,VWS V14.01,2013-02-19 04:11:00,
2013-02-18 20:16:00,48.7,36.7,29.87,SSW,200,5.0,18.0,63,0.00,,---,0.00,VWS V14.01,2013-02-19 04:16:00,
2013-02-18 20:21:00,48.3,37.5,29.87,SW,215,10.0,18.0,66,0.00,,---,0.00,VWS V14.01,2013-02-19 04:21:00,
2013-02-18 20:26:00,48.0,37.6,29.87,SW,229,14.0,25.0,67,0.00,,---,0.00,VWS V14.01,2013-02-19 04:26:00,
2013-02-18 20:31:00,47.7,37.7,29.87,SW,219,19.0,25.0,68,0.00,,---,0.00,VWS V14.01,2013-02-19 04:31:00,
2013-02-18 20:36:00,47.4,38.5,29.87,SW,229,11.0,25.0,71,0.00,,---,0.00,VWS V14.01,2013-02-19 04:36:00,
2013-02-18 20:42:00,47.2,38.3,29.86,SSW,203,18.0,25.0,71,0.00,,---,0.00,VWS V14.01,2013-02-19 04:42:00,
2013-02-18 20:47:00,47.0,38.1,29.87,WSW,240,14.0,28.0,71,0.00,,---,0.00,VWS V14.01,2013-02-19 04:47:00,
2013-02-18 20:52:00,46.9,38.0,29.87,WSW,249,20.0,28.0,71,0.00,,---,0.00,VWS V14.01,2013-02-19 04:52:00,
2013-02-18 20:57:00,46.9,37.6,29.88,SW,222,17.0,28.0,70,0.00,,---,0.00,VWS V14.01,2013-02-19 04:57:00,
2013-02-18 21:00:00,47.0,37.4,29.87,SW,219,19.0,19.0,69,0.00,,---,0.00,VWS V14.01,2013-02-19 05:00:00,
2013-02-18 21:01:00,47.1,37.5,29.88,SSW,205,9.0,21.0,69,0.00,,---,0.00,VWS V14.01,2013-02-19 05:01:00,
2013-02-18 21:02:00,47.2,37.2,29.88,SSW,212,11.0,21.0,68,0.00,,---,0.00,VWS V14.01,2013-02-19 05:02:00,
2013-02-18 21:04:00,47.2,37.2,29.88,SW,221,13.0,21.0,68,0.00,,---,0.00,VWS V14.01,2013-02-19 05:04:00,
2013-02-18 21:09:00,47.2,37.2,29.88,SW,215,12.0,21.0,68,0.00,,---,0.00,VWS V14.01,2013-02-19 05:09:00,
2013-02-18 21:14:00,47.1,37.5,29.88,SSW,212,13.0,22.0,69,0.00,,---,0.00,VWS V14.01,2013-02-19 05:14:00,
2013-02-18 21:19:00,46.9,37.3,29.88,SSW,205,12.0,22.0,69,0.00,,---,0.00,VWS V14.01,2013-02-19 05:19:00,
2013-02-18 21:24:00,46.5,37.6,29.88,SW,233,15.0,27.0,71,0.00,,---,0.00,VWS V14.01,2013-02-19 05:24:00,
2013-02-18 21:29:00,46.3,37.4,29.88,SSE,168,17.0,27.0,71,0.00,,---,0.00,VWS V14.01,2013-02-19 05:29:00,
2013-02-18 21:34:00,46.3,37.4,29.88,WSW,248,10.0,27.0,71,0.00,,---,0.00,VWS V14.01,2013-02-19 05:34:00,
2013-02-18 21:39:00,46.3,36.7,29.88,SW,224,10.0,27.0,69,0.00,,---,0.00,VWS V14.01,2013-02-19 05:39:00,
2013-02-18 21:44:00,46.4,36.8,29.88,SW,224,7.0,27.0,69,0.00,,---,0.00,VWS V14.01,2013-02-19 05:44:00,
2013-02-18 21:49:00,46.5,36.2,29.88,SSE,159,15.0,27.0,67,0.00,,---,0.00,VWS V14.01,2013-02-19 05:49:00,
2013-02-18 21:54:00,46.3,36.7,29.88,SSW,212,6.0,27.0,69,0.00,,---,0.00,VWS V14.01,2013-02-19 05:54:00,
2013-02-18 21:59:00,46.1,36.5,29.88,West,260,14.0,14.0,69,0.00,,---,0.00,VWS V14.01,2013-02-19 05:59:00,
2013-02-18 22:05:00,46.0,36.4,29.88,SSW,197,15.0,25.0,69,0.00,,---,0.00,VWS V14.01,2013-02-19 06:05:00,
2013-02-18 22:10:00,45.9,36.3,29.89,WSW,248,15.0,26.0,69,0.00,,---,0.00,VWS V14.01,2013-02-19 06:10:00,
2013-02-18 22:15:00,45.7,36.5,29.88,SW,229,8.0,26.0,70,0.00,,---,0.00,VWS V14.01,2013-02-19 06:15:00,
2013-02-18 22:20:00,45.7,36.5,29.88,WSW,257,6.0,26.0,70,0.00,,---,0.00,VWS V14.01,2013-02-19 06:20:00,
2013-02-18 22:25:00,45.6,36.4,29.88,West,266,10.0,26.0,70,0.00,,---,0.00,VWS V14.01,2013-02-19 06:25:00,
2013-02-18 22:30:00,45.7,36.1,29.88,West,274,5.0,26.0,69,0.00,,---,0.00,VWS V14.01,2013-02-19 06:30:00,
2013-02-18 22:35:00,45.3,36.5,29.88,SW,217,1.0,26.0,71,0.00,,---,0.00,VWS V14.01,2013-02-19 06:35:00,
2013-02-18 22:40:00,45.2,36.4,29.88,SW,215,6.0,26.0,71,0.00,,---,0.00,VWS V14.01,2013-02-19 06:40:00,
2013-02-18 22:45:00,45.1,36.3,29.88,WSW,257,7.0,26.0,71,0.00,,---,0.00,VWS V14.01,2013-02-19 06:45:00,
2013-02-18 22:50:00,45.0,36.5,29.88,West,266,9.0,26.0,72,0.00,,---,0.00,VWS V14.01,2013-02-19 06:50:00,
2013-02-18 22:55:00,44.9,36.4,29.88,SW,221,2.0,26.0,72,0.00,,---,0.00,VWS V14.01,2013-02-19 06:55:00,
2013-02-18 23:00:00,44.9,36.4,29.87,West,271,7.0,8.0,72,0.00,,---,0.00,VWS V14.01,2013-02-19 07:00:00,
2013-02-18 23:05:00,44.9,36.1,29.87,SW,219,1.0,12.0,71,0.00,,---,0.00,VWS V14.01,2013-02-19 07:05:00,
2013-02-18 23:10:00,45.1,36.3,29.87,WNW,297,7.0,13.0,71,0.00,,---,0.00,VWS V14.01,2013-02-19 07:10:00,
2013-02-18 23:15:00,44.9,36.1,29.87,WSW,253,5.0,13.0,71,0.00,,---,0.00,VWS V14.01,2013-02-19 07:15:00,
2013-02-18 23:20:00,45.2,36.0,29.87,NW,311,11.0,16.0,70,0.00,,---,0.00,VWS V14.01,2013-02-19 07:20:00,
2013-02-18 23:25:00,45.3,36.1,29.87,WSW,243,4.0,16.0,70,0.00,,---,0.00,VWS V14.01,2013-02-19 07:25:00,
2013-02-18 23:30:00,45.3,36.1,29.87,SSW,206,3.0,16.0,70,0.00,,---,0.00,VWS V14.01,2013-02-19 07:30:00,
2013-02-18 23:35:00,45.1,36.3,29.87,WSW,246,12.0,16.0,71,0.00,,---,0.00,VWS V14.01,2013-02-19 07:35:00,
2013-02-18 23:40:00,45.3,36.1,29.87,WSW,250,8.0,16.0,70,0.00,,---,0.00,VWS V14.01,2013-02-19 07:40:00,
2013-02-18 23:45:00,45.3,36.1,29.87,NNW,339,8.0,16.0,70,0.00,,---,0.00,VWS V14.01,2013-02-19 07:45:00,
2013-02-18 23:50:00,45.1,35.9,29.87,SW,217,2.0,16.0,70,0.00,,---,0.00,VWS V14.01,2013-02-19 07:50:00,
2013-02-18 23:55:00,44.9,36.1,29.87,SE,131,0.0,16.0,71,0.00,,---,0.00,VWS V14.01,2013-02-19 07:55:00,